Location: Downe
(51.3167°N, 0.0500°E)
Time: 20:40:18
(UTC+00:00)

CZ-4B R/B - Pass Details

Date: 17 November 2019
Orbit: 498 x 646 km, 97.7° (Epoch: 05 December)

Event Time Altitude Azimuth Distance (km) Brightness Sun altitude
Rises 05:09:01 0° 11° (N) 2,957 7.6 -20.2°
Reaches altitude 10° 05:11:15 10° 8° (N) 2,052 6.7 -19.8°
Maximum altitude 05:15:40 60° 289° (WNW) 745 4.1 -19.1°
Drops below altitude 10° 05:20:04 10° 210° (SSW) 2,039 6.5 -18.4°
Sets 05:22:17 0° 206° (SSW) 2,936 7.3 -18.1°
